This is the latest recevied weather packets stored in our database for station/object N6RDS. If no packets are shown the sender has not sent any weather packets the latest 10 day(s).
| Time | Temp. | Humidity | Pressure | Rain* | Wind** | Luminosity | Snow |
|---|---|---|---|---|---|---|---|
| 1778022891 | 3.89° C | 90% | 1018.9 hPa | 1.78 mm | - | 20 W/m² | - |
| 1778022589 | 3.89° C | 91% | 1019.2 hPa | 1.78 mm | - | 21 W/m² | - |
| 1778022287 | 3.89° C | 91% | 1019.5 hPa | 0 mm | - | 15 W/m² | - |
| 1778021983 | 3.89° C | 89% | 1019.5 hPa | 1.27 mm | - | 17 W/m² | - |
| 1778021680 | 3.89° C | 88% | 1019.5 hPa | 1.27 mm | - | 14 W/m² | - |
| 1778021376 | 3.89° C | 89% | 1019.2 hPa | 0 mm | - | 14 W/m² | - |
| 1778021073 | 3.89° C | 90% | 1019.2 hPa | 1.78 mm | - | 17 W/m² | - |
| 1778020770 | 3.89° C | 90% | 1019.2 hPa | 1.78 mm | - | 17 W/m² | - |
| 1778020467 | 3.89° C | 90% | 1019.4 hPa | 0 mm | - | 16 W/m² | - |
| 1778020163 | 3.89° C | 90% | 1019.6 hPa | 1.27 mm | - | 20 W/m² | - |
| 1778019860 | 3.89° C | 89% | 1019.6 hPa | 1.27 mm | - | 17 W/m² | - |
| 1778019556 | 3.89° C | 88% | 1019.9 hPa | 1.78 mm | - | 15 W/m² | - |
| 1778019253 | 3.33° C | 89% | 1019.6 hPa | 1.78 mm | - | 18 W/m² | - |
| 1778018950 | 3.33° C | 89% | 1019.7 hPa | 1.78 mm | - | 17 W/m² | - |
| 1778018647 | 3.33° C | 89% | 1019.5 hPa | 1.78 mm | - | 20 W/m² | - |
| 1778018345 | 3.33° C | 90% | 1019.5 hPa | 1.27 mm | - | 22 W/m² | - |
| 1778018043 | 2.78° C | 89% | 1019.7 hPa | 3.05 mm | - | 21 W/m² | - |
| 1778017741 | 2.78° C | 88% | 1019.6 hPa | 3.05 mm | - | 19 W/m² | - |
| 1778017438 | 3.33° C | 87% | 1019.5 hPa | 3.05 mm | - | 17 W/m² | - |
| 1778017135 | 3.33° C | 85% | 1019.6 hPa | 3.05 mm | - | 18 W/m² | - |
| 1778016833 | 3.33° C | 84% | 1020 hPa | 3.05 mm | - | 28 W/m² | - |
| 1778016528 | 3.33° C | 82% | 1019.7 hPa | 3.05 mm | - | 21 W/m² | - |
| 1778016226 | 3.89° C | 79% | 1019.9 hPa | 1.27 mm | - | 20 W/m² | - |
| 1778015922 | 3.89° C | 76% | 1020.2 hPa | 0 mm | - | 22 W/m² | - |
| 1778015620 | 4.44° C | 72% | 1020.2 hPa | 0 mm | - | 17 W/m² | - |
* Rain latest hour (hover to see other rain measurements)
** Current wind speed in m/s (hover to see current wind gust speed)